X-SAT (37389 NORAD) Tracking and Keplerian Element Data

This shows tracking and keplerian element data for the satellite.

Feedback or suggestion? Click here.




ElementValue
Catalog37389
NameX-SAT
Epoch Orbit37654
Epoch Day198.80985038
Epoch Year2018
RAAN268.0663
Inclination98.5299
Eccentricity0.0014246
Argument of Perigee171.6724
Mean Anonmoly188.4691
Mean Motion14.24357899
Decay Rate-1.8E-07
L11 37389U 11015C 18198.80985038 -.00000018 00000-0 10453-4 0 9993
L22 37389 98.5299 268.0663 0014246 171.6724 188.4691 14.24357899376544

Live tracking and technical data element details for X-SAT (NORAD 37389). X-SAT can be tracked NOW for your location showing map with azimuth and elevation plus other details from your city location.

Track the satellite on the map from your city or location and see movement details for azimuth, elevation, latitude, longitude, range, height, and movement on the map or in text.







IsCatalogInMostPopularTable: catalog: 37389, numindb: 15
Update: records affected: 1



GetName: 37389 X-SAT

Hit Count: updated at: Thu, 19 Jul 2018 21:12:51 GMT